weather.gov     
National Weather Service

Terminal Aerodrome Forecast
NWS Homepage
This page is being discontinued on March 12, 2014.
The same data is available at this site. Please update your bookmarks.
Thank you, and we apologize for the inconvenience.
Please send an email to SR-SRH.Webmaster@noaa.gov with any concerns.


Current Version
Previous Version:    01  02  03  04  05  06  07  08  09  10  11  12  13  14  15  16  17  18  19  20  21  22  23  24  25  26  27  28  29  30  
   31  32  33  34  35  36  37  38  39  
[Printable]
878
FTUS41 KCLE 020700 AAB
TAFFDY
TAF AMD
KFDY 020752Z 0208/0306 VRB03KT P6SM VCTS BKN050CB
      TEMPO 0208/0211 3SM -TSRA OVC025CB
     FM021100 00000KT 5SM BR SCT050
     FM021200 04003KT P6SM VCSH SCT060 BKN100
     FM021700 03004KT P6SM -SHRA VCTS BKN035CB=


U.S. Dept. of Commerce
NOAA National Weather Service
1325 East West Highway
Silver Spring, MD 20910
E-mail: w-nws.webmaster@noaa.gov
Page last modified: May 16, 2007
NATIONAL WEATHER SERVICE: for Safety, for Work, for Fun - FOR LIFE